Location: Oberkirch
(48.5323°N, 8.0787°E)
Time: 19:03:13
(UTC+00:00)

Vanguard 1 Rocket - All Passes

Search period start: 18 February 2026 00:00
Search period end: 28 February 2026 00:00
Orbit: 652 x 4215 km, 34.3° (Epoch: 18 February)

Date Brightness Start Highest point End Pass type
(mag) Time Alt. Az. Time Alt. Az. Time Alt. Az.
18 Feb - 11:58:24 10° SSW 12:05:58 28° SE 12:18:20 10° E daylight
18 Feb - 14:20:16 10° WSW 14:31:23 47° S 14:51:14 10° ESE daylight
18 Feb - 16:44:49 10° W 16:59:29 44° SSW 17:22:00 10° SE visible
18 Feb - 19:12:45 10° W 19:28:08 27° SW 19:46:51 10° S visible
19 Feb - 10:49:16 10° S 10:54:15 16° SE 11:01:01 10° E daylight
19 Feb - 13:09:00 10° SW 13:18:10 40° SSE 13:34:38 10° E daylight
19 Feb - 15:32:27 10° WSW 15:45:05 47° S 16:06:33 10° ESE daylight
19 Feb - 17:58:26 10° W 18:13:39 34° SSW 18:34:30 10° SSE visible
19 Feb - 20:32:14 10° WSW 20:41:28 14° SW 20:51:27 10° SSW visible
20 Feb - 11:58:21 10° SSW 12:05:42 30° SSE 12:18:04 10° E daylight
20 Feb - 14:20:36 10° WSW 14:31:15 46° S 14:50:24 10° ESE daylight
20 Feb - 16:45:17 10° W 16:59:09 40° SSW 17:20:31 10° SE daylight
20 Feb - 19:14:01 10° W 19:27:27 22° SW 19:43:44 10° S visible
21 Feb - 10:48:40 10° S 10:53:54 19° SE 11:01:24 10° E daylight
21 Feb - 13:09:16 10° SW 13:18:03 41° SSE 13:34:02 10° ESE daylight
21 Feb - 15:32:53 10° WSW 15:44:55 44° S 16:05:22 10° SE daylight
21 Feb - 17:59:14 10° W 18:13:10 29° SSW 18:32:13 10° SSE visible
22 Feb - 11:58:27 10° SW 12:05:34 32° SSE 12:17:44 10° E daylight
22 Feb - 14:21:01 10° WSW 14:31:11 44° S 14:49:30 10° ESE daylight
22 Feb - 16:45:53 10° W 16:58:51 35° SSW 17:18:45 10° SSE daylight
22 Feb - 19:16:07 10° WSW 19:26:51 17° SW 19:39:33 10° SSW visible
23 Feb - 10:48:23 10° S 10:53:42 21° SE 11:01:34 10° E daylight
23 Feb - 13:09:37 10° SW 13:18:02 41° S 13:33:22 10° ESE daylight
23 Feb - 15:33:24 10° WSW 15:44:48 40° SSW 16:04:00 10° SE daylight
23 Feb - 18:00:21 10° WSW 18:12:45 24° SSW 18:29:23 10° S visible
24 Feb - 09:41:00 10° SE 09:42:17 10° SE 09:43:41 10° SE daylight
24 Feb - 11:58:40 10° SW 12:05:31 33° SSE 12:17:22 10° ESE daylight
24 Feb - 14:21:30 10° WSW 14:31:10 41° S 14:48:29 10° ESE daylight
24 Feb - 16:46:40 10° WSW 16:58:38 30° SSW 17:16:38 10° SSE daylight
24 Feb - 19:20:21 10° WSW 19:26:19 12° SW 19:32:55 10° SSW visible
25 Feb - 10:48:20 10° SSW 10:53:35 23° SSE 11:01:35 10° ESE daylight
25 Feb - 13:10:02 10° WSW 13:18:06 40° S 13:32:39 10° ESE daylight
25 Feb - 15:34:03 10° WSW 15:44:43 35° SSW 16:02:25 10° SE daylight
25 Feb - 18:02:03 10° WSW 18:12:24 19° SW 18:25:45 10° S visible
26 Feb - 09:39:25 10° SSE 09:42:06 13° SE 09:45:19 10° ESE daylight
26 Feb - 11:59:00 10° SW 12:05:35 34° SSE 12:16:57 10° ESE daylight
26 Feb - 14:22:04 10° WSW 14:31:13 38° S 14:47:19 10° SE daylight
26 Feb - 16:47:43 10° WSW 16:58:27 25° SSW 17:14:05 10° SSE daylight
27 Feb - 10:48:26 10° SSW 10:53:35 25° SSE 11:01:32 10° ESE daylight
27 Feb - 13:10:33 10° WSW 13:18:13 37° S 13:31:52 10° ESE daylight
27 Feb - 15:34:50 10° WSW 15:44:43 30° SSW 16:00:33 10° SSE daylight
27 Feb - 18:05:01 10° WSW 18:12:07 13° SW 18:20:37 10° SSW visible
